sat.trackr.live / text

‹ back to catalog

MISR-C-2

NORAD 68633 · 2026-074G

PAYLOAD ACTIVE UNKNOWN

§ Identity

Operator
Country
US
Launch date
2026-04-07
Launch site
AFWTR
Launch vehicle
Mass (kg)
RCS (m²)

External: N2YO · Heavens-Above · Gunter

§ Orbital elements

Epoch: 2026-09-20T04:37:11.639712Z

Period
94.26 min
Inclination
60.0209°
Eccentricity
0.0034827
Mean motion
15.27611806 rev/d
Perigee alt
459.1 km
Apogee alt
506.8 km
Semi-major
6,861.1 km
B*
2.7887e-4
RAAN
171.7716°
Arg perigee
95.6183°
Mean anomaly
264.8872°
Rev number
2,529

§ Raw data

MISR-C-21 68633U 26074G   26263.19249583  .00007427  00000+0  27887-3 0  99992 68633  60.0209 171.7716 0034827  95.6183 264.8872 15.27611806 25293

JSON: /api/v1/satellites/68633 · /tle

For live sub-satellite position, see the globe view (requires WebGL).

§ Visibility from observer

Set your observer location to see the next 7 days of passes ≥ 10°. The values pass through the URL so the page stays shareable.

No JS? Fill the form by hand. The geolocation button needs JavaScript.